^^
Saratoga-Weather Station Historical Data
Daily Summary for February 13, 2021 Units:  English    Metric   Both
Daily Weekly Monthly Yearly Custom
  High: Low: Average:
Temperature: 64 °F 56.5 °F 60.3 °F
Dew Point: 56.7 °F 50.4 °F 53.1 °F
Humidity: 81% 75% 78%
Wind Speed: 4mph 0mph 1mph
Wind Gust: 6mph - -
Wind- - SW
Pressure: 30.3 in 30.2 in -
Precipitation: 0 in    
Historical Graphs
 
 
Tabular Data for February 13, 2021
Time Temperature Dew Point Pressure Wind Wind Speed Wind Gust Humidity Rainfall Rate (Hourly) solar
00:03 64 °F 56.3 °F 30.2 in West 2.9 mph 5 mph 76% 0 in 0 W/m2
00:08 64 °F 56.7 °F 30.2 in West 2.9 mph 4 mph 77% 0 in 0 W/m2
00:13 63.9 °F 56.5 °F 30.2 in West 2 mph 3 mph 77% 0 in 0 W/m2
00:18 63.9 °F 56.5 °F 30.2 in WSW 2 mph 3 mph 77% 0 in 0 W/m2
00:23 63.7 °F 56.3 °F 30.2 in West 2 mph 3 mph 77% 0 in 0 W/m2
00:28 63.5 °F 56.1 °F 30.2 in West 4 mph 4 mph 77% 0 in 0 W/m2
00:33 63.3 °F 55.9 °F 30.2 in West 2 mph 3 mph 77% 0 in 0 W/m2
00:38 63.3 °F 55.9 °F 30.2 in WNW 2.9 mph 4 mph 77% 0 in 0 W/m2
00:43 63.3 °F 55.6 °F 30.2 in West 0.9 mph 3 mph 76% 0 in 0 W/m2
00:48 63.3 °F 55.6 °F 30.2 in West 0.9 mph 3 mph 76% 0 in 0 W/m2
00:53 63.3 °F 55.6 °F 30.2 in Calm   3 mph 76% 0 in 0 W/m2
00:58 63.1 °F 55.4 °F 30.2 in West 0.9 mph 1 mph 76% 0 in 0 W/m2
01:03 63 °F 55.2 °F 30.2 in NW 0.9 mph 3 mph 76% 0 in 0 W/m2
01:08 62.8 °F 55 °F 30.2 in Calm   1 mph 76% 0 in 0 W/m2
01:13 62.6 °F 54.9 °F 30.2 in WSW 0.9 mph 3 mph 76% 0 in 0 W/m2
01:18 62.4 °F 54.7 °F 30.2 in Calm     76% 0 in 0 W/m2
01:23 62.2 °F 54.9 °F 30.2 in Calm     77% 0 in 0 W/m2
01:28 62.1 °F 54.7 °F 30.2 in Calm     77% 0 in 0 W/m2
01:33 61.7 °F 54.5 °F 30.2 in Calm   1 mph 77% 0 in 0 W/m2
01:38 61.5 °F 54.7 °F 30.2 in Calm   2 mph 78% 0 in 0 W/m2
01:43 61.3 °F 54.5 °F 30.2 in Calm   1 mph 78% 0 in 0 W/m2
01:48 61.2 °F 54.7 °F 30.2 in WSW 2 mph 2 mph 79% 0 in 0 W/m2
01:53 61 °F 54.1 °F 30.2 in North 0.9 mph 4 mph 78% 0 in 0 W/m2
01:58 61.2 °F 54 °F 30.2 in Calm   3 mph 77% 0 in 0 W/m2
02:03 61.3 °F 54.1 °F 30.2 in West 0.9 mph 4 mph 77% 0 in 0 W/m2
02:08 61.3 °F 54.1 °F 30.2 in WNW 4 mph 4 mph 77% 0 in 0 W/m2
02:13 61.3 °F 53.8 °F 30.2 in West 0.9 mph 4 mph 76% 0 in 0 W/m2
02:18 61.3 °F 53.8 °F 30.2 in WNW 0.9 mph 4 mph 76% 0 in 0 W/m2
02:23 61.3 °F 53.8 °F 30.2 in North 2.9 mph 3 mph 76% 0 in 0 W/m2
02:28 61.3 °F 53.8 °F 30.2 in Calm   2 mph 76% 0 in 0 W/m2
02:33 61.2 °F 53.6 °F 30.2 in NNW 0.9 mph 3 mph 76% 0 in 0 W/m2
02:38 61.2 °F 53.2 °F 30.2 in Calm   3 mph 75% 0 in 0 W/m2
02:43 61 °F 53.1 °F 30.2 in Calm   2 mph 75% 0 in 0 W/m2
02:48 61 °F 53.1 °F 30.2 in West 2.9 mph 3 mph 75% 0 in 0 W/m2
02:53 60.8 °F 52.9 °F 30.2 in NW 0.9 mph 4 mph 75% 0 in 0 W/m2
02:58 60.6 °F 52.7 °F 30.2 in SW 2 mph 4 mph 75% 0 in 0 W/m2
03:03 60.8 °F 52.9 °F 30.2 in WSW 0.9 mph 2 mph 75% 0 in 0 W/m2
03:08 60.8 °F 52.9 °F 30.2 in WSW 0.9 mph 4 mph 75% 0 in 0 W/m2
03:13 60.6 °F 52.7 °F 30.2 in WSW 0.9 mph 4 mph 75% 0 in 0 W/m2
03:18 60.6 °F 52.7 °F 30.2 in Calm     75% 0 in 0 W/m2
03:23 60.4 °F 52.9 °F 30.2 in Calm   4 mph 76% 0 in 0 W/m2
03:28 60.3 °F 52.7 °F 30.2 in Calm     76% 0 in 0 W/m2
03:33 59.9 °F 52.3 °F 30.2 in Calm     76% 0 in 0 W/m2
03:38 59.5 °F 52.3 °F 30.2 in Calm   1 mph 77% 0 in 0 W/m2
03:43 59.4 °F 52.5 °F 30.2 in Calm   1 mph 78% 0 in 0 W/m2
03:48 59 °F 52.2 °F 30.2 in North 0.9 mph 2 mph 78% 0 in 0 W/m2
03:53 59 °F 52.2 °F 30.2 in ENE 2 mph 4 mph 78% 0 in 0 W/m2
03:58 59.2 °F 52.3 °F 30.2 in Calm   4 mph 78% 0 in 0 W/m2
04:03 59.2 °F 52.3 °F 30.2 in West 0.9 mph 4 mph 78% 0 in 0 W/m2
04:08 59.2 °F 52.3 °F 30.2 in WNW 2 mph 6 mph 78% 0 in 0 W/m2
04:13 59.2 °F 52.3 °F 30.2 in West 2.9 mph 4 mph 78% 0 in 0 W/m2
04:18 58.8 °F 52 °F 30.2 in WNW 0.9 mph 4 mph 78% 0 in 0 W/m2
04:23 58.6 °F 51.8 °F 30.2 in WNW 0.9 mph 2 mph 78% 0 in 0 W/m2
04:28 58.5 °F 52 °F 30.2 in Calm   1 mph 79% 0 in 0 W/m2
04:33 58.3 °F 51.8 °F 30.2 in South 2 mph 3 mph 79% 0 in 0 W/m2
04:38 57.9 °F 51.8 °F 30.2 in Calm   1 mph 80% 0 in 0 W/m2
04:43 57.7 °F 51.6 °F 30.2 in WSW 0.9 mph 2 mph 80% 0 in 0 W/m2
04:48 57.7 °F 51.6 °F 30.2 in East 0.9 mph 2 mph 80% 0 in 0 W/m2
04:53 57.7 °F 51.3 °F 30.2 in NNW 0.9 mph 2 mph 79% 0 in 0 W/m2
04:58 57.7 °F 51.3 °F 30.2 in NE 2 mph 4 mph 79% 0 in 0 W/m2
05:03 57.7 °F 51.3 °F 30.2 in NE 0.9 mph 5 mph 79% 0 in 0 W/m2
05:08 57.7 °F 51.6 °F 30.2 in North 0.9 mph 2 mph 80% 0 in 0 W/m2
05:13 57.6 °F 51.4 °F 30.2 in ENE 0.9 mph 5 mph 80% 0 in 0 W/m2
05:18 57.6 °F 51.1 °F 30.2 in NE 2 mph 2 mph 79% 0 in 0 W/m2
05:23 57.4 °F 51.3 °F 30.2 in Calm   5 mph 80% 0 in 0 W/m2
05:28 57.4 °F 51.3 °F 30.2 in SSW 0.9 mph 1 mph 80% 0 in 0 W/m2
05:33 57.2 °F 51.1 °F 30.2 in WSW 0.9 mph 2 mph 80% 0 in 5 W/m2
05:38 57 °F 50.9 °F 30.2 in Calm   4 mph 80% 0 in 7 W/m2
05:43 56.8 °F 50.7 °F 30.2 in Calm   3 mph 80% 0 in 9 W/m2
05:48 57 °F 50.5 °F 30.2 in Calm   2 mph 79% 0 in 11 W/m2
05:53 56.8 °F 50.4 °F 30.2 in Calm   2 mph 79% 0 in 12 W/m2
05:58 56.8 °F 50.4 °F 30.3 in ESE 0.9 mph 2 mph 79% 0 in 16 W/m2
06:03 56.8 °F 50.7 °F 30.3 in ESE 0.9 mph 2 mph 80% 0 in 18 W/m2
06:08 56.7 °F 50.9 °F 30.3 in SE 2 mph 3 mph 81% 0 in 19 W/m2
06:13 56.5 °F 50.7 °F 30.3 in Calm   1 mph 81% 0 in 21 W/m2
06:18 56.5 °F 50.7 °F 30.3 in Calm   3 mph 81% 0 in 23 W/m2
Juneau County Weather
Compliments of Weather Underground - 2 mb